Toms River, NJ

7:33 PM EST on February 26, 2017 (GMT -0500)
Miller

Weather History for KMJX - April, 2014

Change the Weather History Date:

Saturday, April 26, 2014

  Actual Average Record
Temperature  
Mean Temperature 58 °F -  
Max Temperature 69 °F 63 °F 89 °F (1960)
Min Temperature 46 °F 41 °F 27 °F (1967)
Degree Days  
Heating Degree Days 8    
Growing Degree Days 8 (Base 50)    
Moisture  
Dew Point 44 °F    
Average Humidity 72    
Maximum Humidity 100    
Minimum Humidity 33    
Precipitation  
Precipitation 0.45 in - - ()
Sea Level Pressure  
Sea Level Pressure 29.76 in    
Wind  
Wind Speed 5 mph (North)    
Max Wind Speed 16 mph    
Max Gust Speed 23 mph    
Visibility 9 miles    
Events      
Averages and records for this station are not official NWS values.
T = Trace of Precipitation, MM = Missing Value Source: NWS Daily Summary

Daily Weather History Graph

Daily Weather History Graph

Search for Another Location

Airport or City:

Trip Planner

Search our weather history database for the weather conditions in past years. The results will help you decide how hot, cold, wet, or windy it might be!

Date:

Astronomy

Apr. 26, 2014 Rise Set
Actual Time 6:03 AM EDT 7:46 PM EDT
Civil Twilight 5:35 AM EDT 8:15 PM EDT
Nautical Twilight 5:00 AM EDT 8:50 PM EDT
Astronomical Twilight 4:22 AM EDT 9:28 PM EDT
Moon 4:26 AM EDT (4/26) 5:12 PM EDT (4/26)
Length of Visible Light 14h 40m
Length of Day
13h 42m
Waning Crescent, 8% of the Moon is Illuminated
Apr 26
Waning Crescent
Apr 29
New
May 6
First Quarter
May 14
Full
May 21
Last Quarter

Hourly Weather History & Observations

Time (EDT) Temp. Windchill Dew Point Humidity Pressure Visibility Wind Dir Wind Speed Gust Speed Precip Events Conditions
12:15 AM 48.2 °F - 44.6 °F 87% 29.75 in 8.0 mi Calm Calm - 0.01 in   Overcast
12:35 AM 48.2 °F - 46.4 °F 93% 29.73 in 10.0 mi Calm Calm - 0.02 in   Overcast
1:15 AM 50.0 °F - 46.4 °F 87% 29.71 in 10.0 mi SE 3.5 mph - N/A   Overcast
1:35 AM 50.0 °F - 46.4 °F 87% 29.69 in 10.0 mi SE 4.6 mph - 0.01 in   Overcast
1:55 AM 50.0 °F - 48.2 °F 94% 29.68 in 7.0 mi SE 6.9 mph - 0.05 in   Overcast
2:15 AM 50.0 °F - 46.4 °F 87% 29.69 in 6.0 mi Calm Calm - 0.08 in   Overcast
2:35 AM 50.0 °F - 46.4 °F 87% 29.69 in 6.0 mi WNW 4.6 mph - 0.23 in   Overcast
2:55 AM 50.0 °F - 46.4 °F 87% 29.69 in 6.0 mi Calm Calm - 0.29 in   Overcast
3:15 AM 50.0 °F - 46.4 °F 87% 29.68 in 7.0 mi Calm Calm - 0.03 in   Overcast
3:35 AM 48.2 °F - 46.4 °F 93% 29.68 in 7.0 mi NNE 3.5 mph - 0.06 in   Overcast
3:55 AM 50.0 °F - 46.4 °F 87% 29.68 in 3.0 mi NNE 3.5 mph - 0.06 in   Overcast
4:15 AM 50.0 °F - 48.2 °F 94% 29.68 in 3.0 mi North 3.5 mph - 0.02 in   Overcast
4:35 AM 50.0 °F - 46.4 °F 87% 29.67 in 3.0 mi North 3.5 mph - 0.04 in   Overcast
4:55 AM 48.2 °F - 46.4 °F 93% 29.68 in 7.0 mi NNW 6.9 mph - 0.04 in   Overcast
5:15 AM 48.2 °F - 46.4 °F 93% 29.69 in 9.0 mi NNW 5.8 mph - 0.01 in   Overcast
5:35 AM 48.2 °F - 46.4 °F 93% 29.70 in 10.0 mi NNW 9.2 mph - 0.01 in   Overcast
5:55 AM 46.4 °F 44.3 °F 44.6 °F 93% 29.71 in 10.0 mi NNW 4.6 mph - 0.01 in   Overcast
6:15 AM 46.4 °F 43.5 °F 46.4 °F 100% 29.71 in 10.0 mi NNW 5.8 mph - N/A   Overcast
6:35 AM 48.2 °F - 44.6 °F 87% 29.73 in 10.0 mi NNW 5.8 mph - N/A   Overcast
6:55 AM 48.2 °F - 44.6 °F 87% 29.73 in 10.0 mi NNW 6.9 mph - N/A   Overcast
7:15 AM 48.2 °F - 46.4 °F 93% 29.75 in 10.0 mi NNW 5.8 mph - N/A   Overcast
7:55 AM 48.2 °F - 44.6 °F 87% 29.77 in 10.0 mi NNW 6.9 mph 16.1 mph N/A   Overcast
8:15 AM 50.0 °F - 46.4 °F 87% 29.77 in 10.0 mi NW 6.9 mph - N/A   Overcast
8:35 AM 48.2 °F - 44.6 °F 87% 29.77 in 10.0 mi NNW 6.9 mph - N/A   Mostly Cloudy
8:55 AM 51.8 °F - 46.4 °F 82% 29.78 in 10.0 mi NW 5.8 mph - N/A   Scattered Clouds
9:15 AM 53.6 °F - 46.4 °F 77% 29.79 in 10.0 mi NNW 9.2 mph 16.1 mph N/A   Scattered Clouds
9:35 AM 53.6 °F - 44.6 °F 72% 29.80 in 10.0 mi NNW 12.7 mph 23.0 mph N/A   Partly Cloudy
10:15 AM 55.4 °F - 44.6 °F 67% 29.80 in 10.0 mi NNW 12.7 mph 19.6 mph N/A   Scattered Clouds
10:35 AM 57.2 °F - 44.6 °F 63% 29.79 in 10.0 mi NW 12.7 mph - N/A   Partly Cloudy
10:55 AM 57.2 °F - 42.8 °F 59% 29.80 in 10.0 mi NW 10.4 mph - N/A   Clear
11:15 AM 60.8 °F - 42.8 °F 52% 29.80 in 10.0 mi NW 9.2 mph 18.4 mph N/A   Clear
11:35 AM 60.8 °F - 42.8 °F 52% 29.79 in 10.0 mi NNW 10.4 mph 21.9 mph N/A   Clear
11:55 AM 62.6 °F - 42.8 °F 48% 29.79 in 10.0 mi NW 11.5 mph 21.9 mph N/A   Clear
12:15 PM 62.6 °F - 42.8 °F 48% 29.79 in 10.0 mi WNW 12.7 mph 18.4 mph N/A   Scattered Clouds
12:35 PM 62.6 °F - 42.8 °F 48% 29.78 in 10.0 mi NNW 16.1 mph 20.7 mph N/A   Scattered Clouds
12:55 PM 62.6 °F - 42.8 °F 48% 29.77 in 10.0 mi NNW 8.1 mph 21.9 mph N/A   Clear
1:15 PM 66.2 °F - 42.8 °F 43% 29.77 in 10.0 mi NW 11.5 mph 17.3 mph N/A   Partly Cloudy
1:35 PM 64.4 °F - 41.0 °F 42% 29.76 in 10.0 mi WNW 10.4 mph - N/A   Clear
1:55 PM 66.2 °F - 42.8 °F 43% 29.75 in 10.0 mi NW 12.7 mph 20.7 mph N/A   Clear
2:15 PM 66.2 °F - 41.0 °F 40% 29.75 in 10.0 mi WNW 8.1 mph - N/A   Clear
2:35 PM 69.8 °F - 41.0 °F 35% 29.76 in 10.0 mi West 9.2 mph 19.6 mph N/A   Partly Cloudy
2:55 PM 68.0 °F - 39.2 °F 35% 29.75 in 10.0 mi NW 11.5 mph - N/A   Partly Cloudy
3:15 PM 69.8 °F - 41.0 °F 35% 29.74 in 10.0 mi NW 11.5 mph 17.3 mph N/A   Partly Cloudy
3:35 PM 69.8 °F - 41.0 °F 35% 29.74 in 10.0 mi West 12.7 mph 18.4 mph N/A   Mostly Cloudy
3:55 PM 68.0 °F - 39.2 °F 35% 29.74 in 10.0 mi West 10.4 mph 16.1 mph N/A   Mostly Cloudy
4:15 PM 69.8 °F - 39.2 °F 33% 29.74 in 10.0 mi WNW 6.9 mph - N/A   Scattered Clouds
4:35 PM 62.6 °F - 44.6 °F 52% 29.75 in 10.0 mi SE 8.1 mph 16.1 mph N/A   Partly Cloudy
4:55 PM 59.0 °F - 44.6 °F 59% 29.74 in 10.0 mi SSE 10.4 mph - N/A   Mostly Cloudy
5:15 PM 59.0 °F - 44.6 °F 59% 29.74 in 10.0 mi SE 5.8 mph - N/A   Mostly Cloudy
5:35 PM 59.0 °F - 44.6 °F 59% 29.74 in 10.0 mi SSE 5.8 mph - N/A   Scattered Clouds
5:55 PM 59.0 °F - 44.6 °F 59% 29.74 in 10.0 mi ESE 4.6 mph - N/A   Partly Cloudy
6:15 PM 59.0 °F - 44.6 °F 59% 29.74 in 10.0 mi SE 5.8 mph - N/A   Partly Cloudy
6:35 PM 57.2 °F - 44.6 °F 63% 29.74 in 10.0 mi ESE 3.5 mph - N/A   Clear
6:55 PM 55.4 °F - 44.6 °F 67% 29.73 in 10.0 mi SE 5.8 mph - N/A   Clear
7:15 PM 53.6 °F - 44.6 °F 72% 29.78 in 10.0 mi NE 11.5 mph - N/A   Scattered Clouds
7:35 PM 51.8 °F - 44.6 °F 76% 29.78 in 10.0 mi NE 8.1 mph - N/A   Mostly Cloudy
7:55 PM 50.0 °F - 42.8 °F 76% 29.77 in 10.0 mi East 5.8 mph - N/A   Mostly Cloudy
8:15 PM 48.2 °F - 42.8 °F 82% 29.77 in 10.0 mi East 3.5 mph - N/A   Scattered Clouds
8:35 PM 50.0 °F - 42.8 °F 76% 29.77 in 10.0 mi ESE 5.8 mph - N/A   Clear
8:55 PM 48.2 °F - 42.8 °F 82% 29.80 in 10.0 mi ENE 6.9 mph - N/A   Partly Cloudy
9:15 PM 48.2 °F - 42.8 °F 82% 29.79 in 10.0 mi ESE 5.8 mph - N/A   Partly Cloudy
9:35 PM 48.2 °F - 42.8 °F 82% 29.82 in 10.0 mi NNE 5.8 mph - N/A   Clear
9:55 PM 48.2 °F - 42.8 °F 82% 29.84 in 10.0 mi NE 3.5 mph - N/A   Clear
10:15 PM 48.2 °F - 42.8 °F 82% 29.84 in 10.0 mi Calm Calm - N/A   Scattered Clouds
10:35 PM 48.2 °F - 44.6 °F 87% 29.84 in 10.0 mi NE 5.8 mph - N/A   Scattered Clouds
10:55 PM 48.2 °F - 42.8 °F 82% 29.85 in 10.0 mi NNE 3.5 mph - N/A   Partly Cloudy
11:15 PM 48.2 °F - 42.8 °F 82% 29.86 in 10.0 mi NNE 6.9 mph - N/A   Scattered Clouds
11:35 PM 46.4 °F 41.1 °F 44.6 °F 93% 29.88 in 10.0 mi North 11.5 mph - N/A   Overcast
11:55 PM 46.4 °F 45.2 °F 44.6 °F 93% 29.88 in 10.0 mi NNE 3.5 mph - N/A   Overcast